Regional Weather Roundup
Issued by NWS Northern Indiana

Home | Current Version | Previous Version | Graphics & Text | Print | Product List | Glossary On
Versions: 1 2 3 4 5 6 7 8 9 10 11 12 13 14 15 16 17 18 19 20 21 22 23 24 25 26 27 28 29 30 31 32 33 34 35 36 37 38 39 40 41 42 43 44 45 46 47 48 49 50
000
ASUS43 KIWX 231900
RWRIWX

KIWX WEATHER ROUNDUP
NATIONAL WEATHER SERVICE NORTHERN INDIANA
300 PM EDT WED APR 23 2014

NOTE: "FAIR" INDICATES FEW OR NO CLOUDS BELOW 12,000 FEET WITH NO
SIGNIFICANT WEATHER AND/OR OBSTRUCTIONS TO VISIBILITY.

* THESE STATIONS ARE NOT UNDER NWS QUALITY CONTROL. THEY ALSO MAY NOT
  REPORT WEATHER SUCH AS PRECIPITATION OR FOG.

INZ001>027-232000-
NORTHERN INDIANA

CITY           SKY/WX    TMP DP  RH WIND       PRES   REMARKS
GARY*          MOSUNNY   46  30  53 NE12      30.17F
VALPARAISO     SUNNY     49  30  48 N9        30.14F
SOUTH BEND     SUNNY     53  34  48 NW12      30.13F
ELKHART*       SUNNY     54  27  35 NW7       30.13
GOSHEN         SUNNY     54  30  40 CALM      30.12R
ANGOLA*        SUNNY     54  27  35 NE10      30.10R
FORT WAYNE     MOSUNNY   55  28  35 VRB3      30.11R
PERU/GRISSOM   SUNNY     56  32  39 VRB6      30.10F

$$
INZ028>050-232000-
CENTRAL INDIANA

CITY           SKY/WX    TMP DP  RH WIND       PRES   REMARKS
LAFAYETTE      SUNNY     54  29  38 E3        30.10F
KOKOMO*        SUNNY     57  30  35 N9        30.11S
MUNCIE*        SUNNY     55  32  41 VRB3      30.09F
INDIANAPOLIS   MOSUNNY   54  27  35 CALM      30.09F

$$
MIZ043>046-050>051-056>058-064>065-071>073-077>080-232000-
SOUTHWEST LOWER MICHIGAN

CITY           SKY/WX    TMP DP  RH WIND       PRES   REMARKS
BATTLE CREEK   SUNNY     53  22  29 VRB7      30.11S
BENTON HARBOR  SUNNY     42  31  64 VRB7      30.16S
COLDWATER*     SUNNY     52  24  32 N3        30.11R
HILLSDALE*     SUNNY     54  24  31 N9        30.09R
HOLLAND        MOSUNNY   47  29  49 W14G20    30.15S
GRAND RAPIDS   MOSUNNY   55  21  26 VRB3      30.12S
KALAMAZOO      SUNNY     54  22  28 VRB5      30.11F
STURGIS*       SUNNY     54  28  37 NE9       30.10S
THREE RIVERS*  FAIR      55  25  31 N8        30.12S

$$
OHZ001>008-015>018-024>025-232000-
NORTHWEST OHIO

CITY           SKY/WX    TMP DP  RH WIND       PRES   REMARKS
DEFIANCE       SUNNY     56  29  35 VRB5      30.10R
FINDLAY        SUNNY     53  30  41 N9        30.08S
TOLEDO EXPRESS SUNNY     54  29  38 N8        30.08F
TOLEDO METCALF MOSUNNY   51  31  46 VRB7      30.09F
LIMA           MOSUNNY   53  34  48 VRB5      30.08F

$$
&&



USA.gov is the U.S. government's official web portal to all federal, state and local government web resources and services.